This is the latest recevied weather packets stored in our database for station/object KB0VMZ. If no packets are shown the sender has not sent any weather packets the latest 10 day(s).
| Time | Temp. | Humidity | Pressure | Rain* | Wind** | Luminosity | Snow |
|---|---|---|---|---|---|---|---|
| 1788492034 | 26.67° C | 100% | 0 hPa | 0 mm | 3.58 m/s, 180° | - | - |
| 1788491434 | 26.67° C | 100% | 0 hPa | 0 mm | 1.79 m/s, 157° | - | - |
| 1788490834 | 27.22° C | 100% | 0 hPa | 0 mm | 2.24 m/s, 225° | - | - |
| 1788490234 | 27.22° C | 100% | 0 hPa | 0 mm | 2.24 m/s, 180° | - | - |
| 1788489634 | 27.78° C | 100% | 0 hPa | 0 mm | 2.24 m/s, 180° | - | - |
| 1788489034 | 27.78° C | 100% | 0 hPa | 0 mm | 2.24 m/s, 225° | - | - |
| 1788488434 | 27.78° C | 100% | 0 hPa | 0 mm | 3.58 m/s, 225° | - | - |
| 1788487834 | 27.78° C | 100% | 0 hPa | 0 mm | 1.79 m/s, 202° | - | - |
| 1788487234 | 28.33° C | 100% | 0 hPa | 0 mm | 1.79 m/s, 225° | - | - |
| 1788486634 | 28.33° C | 100% | 0 hPa | 0 mm | 0.89 m/s, 225° | - | - |
| 1788486034 | 28.89° C | 100% | 0 hPa | 0 mm | 1.79 m/s, 225° | - | - |
| 1788485434 | 28.89° C | 100% | 0 hPa | 0 mm | 0.89 m/s, 270° | - | - |
| 1788484834 | 29.44° C | 100% | 0 hPa | 0 mm | 2.24 m/s, 157° | - | - |
| 1788484258 | 29.44° C | 100% | 0 hPa | 0 mm | 2.24 m/s, 180° | - | - |
| 1788483634 | 29.44° C | 100% | 0 hPa | 0 mm | 2.68 m/s, 225° | - | - |
| 1788483034 | 30° C | 100% | 0 hPa | 0 mm | 2.24 m/s, 180° | - | - |
| 1788482434 | 30° C | 100% | 0 hPa | 0 mm | 2.68 m/s, 202° | - | - |
| 1788481834 | 30° C | 100% | 0 hPa | 0 mm | 2.68 m/s, 225° | - | - |
| 1788480634 | 30.56° C | 100% | 0 hPa | 0 mm | 2.24 m/s, 202° | - | - |
| 1788480034 | 31.11° C | 100% | 0 hPa | 0 mm | 3.13 m/s, 180° | - | - |
| 1788479434 | 31.11° C | 100% | 0 hPa | 0 mm | 2.68 m/s, 225° | - | - |
| 1788478834 | 31.67° C | 100% | 0 hPa | 0 mm | 1.79 m/s, 202° | - | - |
| 1788478234 | 31.67° C | 100% | 0 hPa | 0 mm | 2.68 m/s, 180° | - | - |
| 1788477634 | 32.22° C | 100% | 0 hPa | 0 mm | 1.79 m/s, 225° | - | - |
| 1788477034 | 32.22° C | 100% | 0 hPa | 0 mm | 2.68 m/s, 180° | - | - |
* Rain latest hour (hover to see other rain measurements)
** Current wind speed in m/s (hover to see current wind gust speed)